Location: Home
(42.5358°N, 72.7383°W)
Time: 04:11:51
(UTC-04:00)

Vanguard 1 - Pass Details

Date: 03 June 2022
Orbit: 649 x 3832 km, 34.2° (Epoch: 24 June)

Event Time Altitude Azimuth Distance (km) Brightness Sun altitude
Rises 23:14:08 0° 223° (SW) 3,932 12.9 -21.4°
Reaches altitude 10° 23:16:34 10° 214° (SW) 3,256 12.4 -21.6°
Maximum altitude 23:24:16 39° 148° (SSE) 2,539 11.6 -22.1°
Drops below altitude 10° 23:37:34 10° 88° (E) 5,602 13.7 -23.0°
Sets 23:43:20 0° 82° (E) 7,102 14.4 -23.3°
